Harbor Springs, MI

2:27 PM EDT on March 24, 2017 (GMT -0400)
Harbor Springs

Weather History for KMGN - March, 2014

Change the Weather History Date:

Saturday, March 22, 2014

  Actual Average (KPLN) Record (KPLN)
Temperature  
Mean Temperature 20 °F -  
Max Temperature 30 °F 39 °F 63 °F (2012)
Min Temperature 9 °F 17 °F -18 °F (1951)
Degree Days  
Heating Degree Days 45    
Moisture  
Dew Point 15 °F    
Average Humidity 75    
Maximum Humidity 96    
Minimum Humidity 54    
Precipitation  
Precipitation 0.00 in - - ()
Sea Level Pressure  
Sea Level Pressure 30.04 in    
Wind  
Wind Speed 6 mph (WNW)    
Max Wind Speed 17 mph    
Max Gust Speed 26 mph    
Visibility 9 miles    
Events Snow    
Averages and records for this station are not official NWS values.
T = Trace of Precipitation, MM = Missing Value Source: NWS Daily Summary

Daily Weather History Graph

Daily Weather History Graph

Search for Another Location

Airport or City:

Trip Planner

Search our weather history database for the weather conditions in past years. The results will help you decide how hot, cold, wet, or windy it might be!

Date:

Astronomy

Mar. 22, 2014 Rise Set
Actual Time 7:38 AM EDT 7:54 PM EDT
Civil Twilight 7:09 AM EDT 8:24 PM EDT
Nautical Twilight 6:34 AM EDT 8:59 PM EDT
Astronomical Twilight 5:58 AM EDT 9:35 PM EDT
Moon 1:26 AM EDT (3/22) 11:07 AM EDT (3/22)
Length of Visible Light 13h 15m
Length of Day
12h 15m
Waning Gibbous, 65% of the Moon is Illuminated
Mar 22
Waning Gibbous
Mar 23
Last Quarter
Mar 30
New
Apr 7
First Quarter
Apr 15
Full

Hourly Weather History & Observations

Time (EDT) Temp. Windchill Dew Point Humidity Pressure Visibility Wind Dir Wind Speed Gust Speed Precip Events Conditions
12:15 AM 30.2 °F 26.7 °F 28.8 °F 94% 29.78 in 1.8 mi ENE 3.5 mph - N/A Snow Light Snow
12:34 AM 30.2 °F 26.7 °F 28.4 °F 93% 29.77 in 4.0 mi NE 3.5 mph - N/A Snow Light Snow
12:55 AM 30.2 °F 26.7 °F 28.2 °F 92% 29.77 in 10.0 mi NE 3.5 mph - N/A Snow Light Snow
1:15 AM 30.2 °F - 27.9 °F 91% 29.77 in 10.0 mi Calm Calm - N/A   Overcast
1:34 AM 30.2 °F - 27.9 °F 91% 29.77 in 10.0 mi Calm Calm - N/A Snow Light Snow
1:55 AM 30.2 °F 26.7 °F 27.9 °F 91% 29.77 in 10.0 mi ENE 3.5 mph - N/A   Overcast
2:15 AM 29.8 °F 26.3 °F 27.3 °F 90% 29.77 in 10.0 mi NE 3.5 mph - N/A   Overcast
2:34 AM 30.0 °F 26.5 °F 27.3 °F 90% 29.78 in 10.0 mi ENE 3.5 mph - N/A   Overcast
2:55 AM 30.0 °F - 27.5 °F 90% 29.78 in 7.0 mi Calm Calm - N/A Snow Light Snow
3:15 AM 30.0 °F - 27.5 °F 90% 29.78 in 10.0 mi Calm Calm - N/A   Overcast
3:34 AM 29.8 °F - 27.5 °F 91% 29.78 in 10.0 mi Calm Calm - N/A   Overcast
3:55 AM 30.4 °F - 27.5 °F 89% 29.79 in 10.0 mi Calm Calm - N/A   Overcast
4:15 AM 29.8 °F - 28.0 °F 93% 29.80 in 7.0 mi Calm Calm - N/A Snow Light Snow
4:35 AM 29.8 °F - 28.0 °F 93% 29.80 in 5.0 mi Calm Calm - N/A Snow Light Snow
4:55 AM 30.2 °F - 28.0 °F 92% 29.81 in 10.0 mi Calm Calm - N/A   Overcast
5:15 AM 28.9 °F - 27.5 °F 94% 29.81 in 10.0 mi Calm Calm - N/A   Overcast
5:35 AM 28.6 °F - 27.3 °F 95% 29.82 in 10.0 mi Calm Calm - N/A   Overcast
5:55 AM 27.9 °F - 26.4 °F 94% 29.83 in 10.0 mi Calm Calm - N/A   Overcast
6:15 AM 26.6 °F - 25.3 °F 95% 29.84 in 10.0 mi Calm Calm - N/A   Overcast
6:35 AM 28.9 °F - 26.4 °F 90% 29.86 in 10.0 mi Calm Calm - N/A   Overcast
6:55 AM 29.7 °F 24.7 °F 26.4 °F 88% 29.88 in 10.0 mi WNW 4.6 mph - N/A   Overcast
7:15 AM 29.3 °F 25.6 °F 26.4 °F 89% 29.89 in 10.0 mi West 3.5 mph - N/A   Overcast
7:35 AM 29.3 °F 24.3 °F 26.6 °F 90% 29.90 in 10.0 mi West 4.6 mph - N/A   Overcast
7:55 AM 29.1 °F 24.1 °F 27.0 °F 92% 29.91 in 5.0 mi WSW 4.6 mph - N/A   Overcast
8:15 AM 28.2 °F 22.0 °F 27.1 °F 96% 29.92 in 4.0 mi WSW 5.8 mph - N/A   Overcast
8:35 AM 28.6 °F 21.5 °F 26.4 °F 92% 29.93 in 4.0 mi West 6.9 mph 16.1 mph N/A Snow Light Snow
8:55 AM 28.0 °F 17.0 °F 24.3 °F 86% 29.94 in 4.0 mi NNW 13.8 mph 21.9 mph N/A Snow Light Snow
9:15 AM 26.2 °F 17.1 °F 21.4 °F 82% 29.96 in 5.0 mi NW 9.2 mph 16.1 mph N/A Snow Light Snow
9:35 AM 23.9 °F 13.5 °F 19.0 °F 82% 29.98 in 5.0 mi NW 10.4 mph 17.3 mph N/A Snow Light Snow
9:55 AM 22.8 °F 11.5 °F 16.5 °F 77% 29.99 in 4.0 mi West 11.5 mph 23.0 mph N/A Snow Light Snow
10:15 AM 22.5 °F 11.7 °F 15.8 °F 76% 30.01 in 7.0 mi WNW 10.4 mph 21.9 mph N/A Snow Light Snow
10:35 AM 21.9 °F 11.7 °F 14.7 °F 74% 30.03 in 7.0 mi West 9.2 mph 19.6 mph N/A Snow Light Snow
10:55 AM 21.9 °F 9.8 °F 13.3 °F 69% 30.04 in 5.0 mi West 12.7 mph 25.3 mph N/A Snow Light Snow
11:15 AM 20.5 °F 8.6 °F 12.7 °F 72% 30.05 in 5.0 mi NW 11.5 mph 18.4 mph N/A Snow Light Snow
11:35 AM 19.8 °F 7.1 °F 10.8 °F 68% 30.07 in 7.0 mi WNW 12.7 mph 26.5 mph N/A Snow Light Snow
11:55 AM 21.0 °F 7.6 °F 11.1 °F 66% 30.07 in 7.0 mi NW 15.0 mph 24.2 mph N/A Snow Light Snow
12:14 PM 19.9 °F 5.2 °F 9.5 °F 64% 30.09 in 10.0 mi WNW 17.3 mph 21.9 mph N/A   Mostly Cloudy
12:35 PM 19.8 °F 5.9 °F 9.3 °F 64% 30.09 in 10.0 mi WNW 15.0 mph 24.2 mph N/A   Overcast
12:55 PM 20.1 °F 6.9 °F 9.5 °F 63% 30.11 in 7.0 mi West 13.8 mph 21.9 mph N/A Snow Light Snow
1:14 PM 20.1 °F 8.1 °F 8.6 °F 61% 30.11 in 10.0 mi WNW 11.5 mph 21.9 mph N/A   Mostly Cloudy
1:35 PM 19.6 °F 5.7 °F 8.1 °F 61% 30.11 in 10.0 mi WNW 15.0 mph 21.9 mph N/A   Mostly Cloudy
1:55 PM 19.8 °F 7.7 °F 8.1 °F 61% 30.13 in 10.0 mi WNW 11.5 mph 20.7 mph N/A   Mostly Cloudy
2:14 PM 19.2 °F 5.3 °F 7.9 °F 61% 30.13 in 10.0 mi West 15.0 mph 21.9 mph N/A   Mostly Cloudy
2:35 PM 19.8 °F 9.9 °F 8.2 °F 61% 30.14 in 10.0 mi WNW 8.1 mph 18.4 mph N/A   Overcast
2:55 PM 19.0 °F 8.2 °F 7.9 °F 62% 30.14 in 10.0 mi WNW 9.2 mph 17.3 mph N/A   Overcast
3:15 PM 19.4 °F 7.9 °F 8.2 °F 62% 30.14 in 10.0 mi WNW 10.4 mph - N/A   Overcast
3:35 PM 19.4 °F 7.9 °F 7.3 °F 60% 30.14 in 10.0 mi WNW 10.4 mph 19.6 mph N/A   Mostly Cloudy
3:55 PM 19.6 °F 7.4 °F 7.2 °F 59% 30.15 in 10.0 mi West 11.5 mph 18.4 mph N/A   Overcast
4:15 PM 19.2 °F 7.0 °F 6.6 °F 58% 30.15 in 10.0 mi WNW 11.5 mph 20.7 mph N/A   Mostly Cloudy
4:35 PM 20.3 °F 8.3 °F 6.1 °F 54% 30.16 in 10.0 mi NW 11.5 mph 19.6 mph N/A   Scattered Clouds
4:55 PM 19.0 °F 6.8 °F 6.1 °F 57% 30.16 in 10.0 mi WNW 11.5 mph 19.6 mph N/A   Scattered Clouds
5:15 PM 19.9 °F 8.6 °F 6.1 °F 55% 30.16 in 10.0 mi NNW 10.4 mph 20.7 mph N/A   Mostly Cloudy
5:35 PM 19.2 °F 7.0 °F 6.1 °F 57% 30.17 in 10.0 mi NW 11.5 mph 17.3 mph N/A   Mostly Cloudy
5:55 PM 17.6 °F 5.7 °F 4.5 °F 56% 30.18 in 10.0 mi WNW 10.4 mph 18.4 mph N/A   Scattered Clouds
6:15 PM 17.6 °F 5.7 °F 4.1 °F 56% 30.19 in 10.0 mi WNW 10.4 mph 18.4 mph N/A   Clear
6:35 PM 17.2 °F 2.7 °F 3.9 °F 56% 30.19 in 10.0 mi West 15.0 mph 24.2 mph N/A   Scattered Clouds
6:55 PM 15.8 °F 2.7 °F 3.2 °F 58% 30.20 in 10.0 mi NW 11.5 mph 19.6 mph N/A   Clear
7:15 PM 15.4 °F 1.6 °F 3.2 °F 59% 30.21 in 10.0 mi NW 12.7 mph 19.6 mph N/A   Clear
7:35 PM 14.5 °F 3.6 °F 3.0 °F 60% 30.22 in 10.0 mi NNW 8.1 mph - N/A   Clear
7:55 PM 13.6 °F 3.5 °F 2.8 °F 62% 30.23 in 10.0 mi WNW 6.9 mph - N/A   Clear
8:15 PM 13.1 °F 1.8 °F 2.3 °F 62% 30.24 in 10.0 mi NW 8.1 mph - N/A   Clear
8:35 PM 12.7 °F 0.4 °F 2.3 °F 63% 30.25 in 10.0 mi NW 9.2 mph - N/A   Clear
8:55 PM 12.0 °F -1.3 °F 1.9 °F 64% 30.26 in 10.0 mi NW 10.4 mph - N/A   Clear
9:15 PM 11.3 °F -1.3 °F 2.1 °F 67% 30.27 in 10.0 mi NW 9.2 mph - N/A   Clear
9:35 PM 10.9 °F -0.8 °F 1.9 °F 67% 30.28 in 10.0 mi WNW 8.1 mph - N/A   Clear
9:55 PM 10.6 °F 1.0 °F 1.9 °F 68% 30.29 in 10.0 mi NW 5.8 mph 16.1 mph N/A   Clear
10:15 PM 10.4 °F -0.4 °F 2.1 °F 69% 30.29 in 10.0 mi WNW 6.9 mph - N/A   Clear
10:35 PM 10.4 °F 0.8 °F 2.3 °F 70% 30.29 in 10.0 mi West 5.8 mph - N/A   Clear
10:55 PM 10.2 °F - 2.3 °F 70% 30.30 in 10.0 mi Calm Calm - N/A   Clear
11:15 PM 10.0 °F 3.6 °F 2.3 °F 71% 30.31 in 10.0 mi West 3.5 mph - N/A   Clear
11:35 PM 10.2 °F 0.6 °F 2.1 °F 70% 30.31 in 10.0 mi WNW 5.8 mph - N/A   Clear
11:54 PM 9.9 °F - 2.3 °F 71% 30.31 in 10.0 mi Calm Calm - N/A   Clear